NOAA 16 DEB, 42351

Orbit data source: Space-Track

NOAA 16 DEB, 42351 is space debris in SSO originally from a launch on Thu, 21 Sep 2000 UTC launched from the Air Force Western Test Range (AFWTR). Debris objects in space refer to the collection of defunct objects orbiting the Earth. Examples of debris include non-operational satellites, rocket bodies, and fragments generated from explosions, collisions, or faulty payload assembly.

Loading next visibility...
Identifier
42351, 2000-055QT
Orbit
SSO
Country
Flag of USUS
Related business
Manufacturer
Unknown
Mission
Spacecraft
Bus & Motor
Unknown
Mass
Unknown
Launch date (UTC)
2000-09-21 (26 years ago)
Launch vehicle
Unknown
Launch site
Air Force Western Test Range (AFWTR)
Object type
Payload
Rocket body
Debris
Shape & HBR
Unknown shape, 0.1 m
Radar Cross Section
Small (<0.1 m²)

Expand to show TLE details & history
Last TLE update: 6 days ago

TLE from 6 days ago
0 NOAA 16 DEB
1 42351U 00055QT  26200.64278574  .00005650  00000-0  10739-2 0  9996
2 42351  98.7018 340.9261 0030694 197.5707 162.4435 14.64276493538213
Epoch: 2026-07-19T15:25Z
TLE epoch observation values (Epoch: 2026-07-19T15:25:36.687Z)
Latitude
-0.00002°
Longitude
172.08499°
Altitude
703.038 km
Speed
7.493 km/s
True Right ascension
22h 43m 42s
True Declination
0° 00' 00"
Sunlit
Object was in full shadow at epoch
Visualization orbit readout
Latitude
Unknown
Longitude
Unknown
Altitude
Unknown
Speed
Unknown
Apparent Right ascension
Unknown
Apparent Declination
Unknown
Sunlit
N/A
Visualization observer readout
Local Sidereal Time
13:29:46
Azimuth
Unknown
Elevation
Unknown
Doppler factor
Unknown
Orbital elements
Apogee altitude
698.152 km
Perigee altitude
654.845 km
Semi-major axis
7,054.635 km
Eccentricity
0.00307
Inclination
98.7018°
RAAN
340.9261°
Arg. of periapsis
197.5707°
True anomaly
162.54921°
Mean anomaly
162.4435°
Eccentric anomaly
162.49639°
Mean motion
3.66295 °/min
Orbital period
98.28 mins
BSTAR
0.0010739
Loading maneuver chart data...
Computing Atmospheric mass density...

Documentation

Showing up to 5 results
|